Flag for Germany Weather past 2 weeks in Georgsmarienhütte, Lower Saxony, Germany

Now
48 °F

Fog.


Feels Like: 46 °F
Forecast: 44 / 55 °F
Wind: 6 mph from South

Location: Muenster / Osnabrueck

Current Time: Oct 23, 2014 at 10:19:29 AM

Latest Report: Oct 23, 2014 at 9:50 AM


Visibility: 3 mi

Pressure: 30.18 "Hg

Humidity: 100%

Dew point: 48 °F

Location of GeorgsmarienhütteLocation

Historic Weather in Georgsmarienhütte — Graph

°F

Georgsmarienhütte temperature yesterday

Maximum temperature yesterday: 54 °F (at 1:50 PM)
Minimum temperature yesterday: 45 °F (at 1:50 AM)
Average temperature yesterday: 49 °F

Past Weeks' High & Low Weather Summary

 TemperatureHumidityPressure
High73 °F (Oct 19, 1:50 PM)100% (Oct 9, 12:20 AM)30.18 "Hg (Oct 9, 12:20 AM)
Low45 °F (Oct 11, 7:20 AM)52% (Oct 14, 2:20 PM)29.45 "Hg (Oct 21, 4:20 PM)
Average56 °F87%29.84 "Hg
* Reported Oct 8 9:20 AM — Oct 23 9:20 AM, Georgsmarienhütte, Weather by CustomWeather, © 2014

Note: Actual official high and low records may vary slightly from our data, if they occured in-between our weather recording intervals... More about our weather records

Advertising

Georgsmarienhütte weather history for previous 24 hours

 ConditionsComfort  
Time TempWeatherWind HumidityBarometerVisibility
9:20 AM
Oct 23
48 °FFog.6 mph100%30.18 "Hg2 mi
8:50 AM48 °FDrizzle. Overcast.3 mph100%30.18 "Hg2 mi
8:20 AM48 °FPartly cloudy.3 mph94%30.18 "Hg3 mi
7:50 AM48 °FPartly cloudy.6 mph94%30.18 "Hg3 mi
7:20 AM48 °FPartly cloudy.8 mph94%30.15 "Hg6 mi
6:50 AM48 °FPassing clouds.3 mph87%30.15 "HgN/A
6:20 AM46 °FPassing clouds.3 mph93%30.15 "HgN/A
5:50 AM46 °FPassing clouds.1 mph93%30.15 "HgN/A
5:20 AM46 °FPassing clouds.2 mph93%30.15 "HgN/A
4:50 AM46 °FPassing clouds.2 mph93%30.15 "HgN/A
4:20 AM45 °FPassing clouds.3 mph93%30.15 "HgN/A
3:50 AM46 °FPassing clouds.5 mph93%30.15 "HgN/A
3:20 AM48 °FPassing clouds.5 mph87%30.15 "HgN/A
2:50 AM48 °FPassing clouds.5 mph87%30.15 "HgN/A
2:20 AM46 °FClear.6 mph87%30.15 "Hg10 mi
1:50 AM48 °FPassing clouds.6 mph87%30.15 "HgN/A
1:20 AM48 °FPassing clouds.5 mph87%30.12 "HgN/A
12:50 AM48 °FPassing clouds.6 mph87%30.12 "HgN/A
12:20 AM50 °FPassing clouds.7 mph82%30.12 "HgN/A
11:50 PM
Oct 22
50 °FPassing clouds.6 mph82%30.12 "HgN/A
11:20 PM50 °FPassing clouds.7 mph82%30.12 "HgN/A
10:50 PM50 °FPassing clouds.6 mph76%30.12 "HgN/A
10:20 PM50 °FClear.6 mph76%30.12 "Hg10 mi
9:50 PM50 °FClear.7 mph76%30.12 "Hg10 mi
9:20 PM50 °FPassing clouds.7 mph76%30.09 "HgN/A
8:50 PM50 °FPassing clouds.8 mph71%30.09 "HgN/A
8:20 PM52 °FPassing clouds.8 mph67%30.09 "HgN/A
7:50 PM52 °FPassing clouds.9 mph67%30.07 "HgN/A
7:20 PM52 °FPassing clouds.9 mph67%30.07 "HgN/A
6:50 PM52 °FPartly sunny.9 mph67%30.07 "HgN/A
6:20 PM52 °FPartly sunny.12 mph67%30.04 "HgN/A
5:50 PM52 °FBroken clouds.12 mph67%30.04 "HgN/A
5:20 PM52 °FPartly sunny.13 mph72%30.01 "HgN/A
4:20 PM52 °FPartly sunny.16 mph67%29.98 "HgN/A
3:50 PM52 °FPartly sunny.16 mph67%29.98 "HgN/A
3:20 PM52 °FPartly sunny.15 mph67%29.98 "HgN/A
2:50 PM52 °FBroken clouds.15 mph72%29.98 "HgN/A
2:20 PM52 °FBroken clouds.15 mph72%29.95 "HgN/A
1:50 PM54 °FBroken clouds.16 mph67%29.95 "HgN/A
1:20 PM52 °FPartly sunny.16 mph67%29.92 "HgN/A
12:50 PM52 °FBroken clouds.18 mph72%29.92 "HgN/A
12:20 PM50 °FBroken clouds.15 mph82%29.92 "HgN/A
11:50 AM50 °FBroken clouds.15 mph76%29.92 "HgN/A
11:20 AM50 °FBroken clouds.14 mph76%29.89 "HgN/A
10:50 AM48 °FBroken clouds.16 mph82%29.89 "HgN/A
10:20 AM48 °FBroken clouds.16 mph82%29.89 "HgN/A
Weather by CustomWeather, © 2014

See weather overviewHow to use our weather pages